Home > Weather > Charlottesville > Past weeks

Flag for USA Past Weather in Charlottesville, Virginia, USA — Yesterday and Last 2 Weeks

Now
72 °F

Clear.


Feels Like: 72 °F
Forecast: 68 / 90 °F
Wind: 7 mph from South

Location: Charlottesville-Albemarle Airport

Current Time: Aug 25, 2016 at 2:36:04 AM

Latest Report: Aug 25, 2016 at 1:53 AM


Visibility: 10 mi

Pressure: 30.13 "Hg

Humidity: 81%

Dew Point: 66 °F

Location of CharlottesvilleLocation

Past Weather in Charlottesville — Graph

°F

Charlottesville Temperature Yesterday

Maximum temperature yesterday: 86 °F (at 3:53 PM)
Minimum temperature yesterday: 64 °F (at 3:58 AM)
Average temperature yesterday: 74 °F

High & Low Weather Summary for the Past Weeks

 TemperatureHumidityPressure
High95 °F (Aug 13, 2:53 PM)94% (Aug 10, 7:53 AM)30.34 "Hg (Aug 10, 7:53 AM)
Low63 °F (Aug 22, 5:53 AM)36% (Aug 22, 5:53 PM)29.78 "Hg (Aug 21, 1:53 PM)
Average80 °F73%30.06 "Hg
* Reported Aug 10 12:53 AM — Aug 25 12:53 AM, Charlottesville, Weather by CustomWeather, © 2016

Note: Actual official high and low records may vary slightly from our data, if they occured in-between our weather recording intervals... More about our weather records

Advertising

Charlottesville Weather History for the Previous 24 Hours

Scroll right to see more
 ConditionsComfort  
Time TempWeatherWind HumidityBarometerVisibility
12:53 AM
Thu, Aug 25
72 °FClear.7 mph81%30.15 "Hg10 mi
11:53 PM
Wed, Aug 24
72 °FClear.5 mph81%30.16 "Hg10 mi
10:53 PM74 °FPassing clouds.No wind82%30.17 "Hg10 mi
9:53 PM75 °FClear.3 mph76%30.17 "Hg10 mi
8:53 PM77 °FPassing clouds.5 mph71%30.17 "Hg10 mi
7:53 PM79 °FSunny.7 mph67%30.17 "Hg10 mi
6:53 PM83 °FPartly sunny.9 mph59%30.15 "Hg10 mi
5:53 PM85 °FPartly sunny.12 mph53%30.16 "Hg10 mi
4:53 PM86 °FPassing clouds.9 mph51%30.17 "Hg10 mi
3:53 PM86 °FScattered clouds.9 mph51%30.19 "Hg10 mi
2:53 PM84 °FPassing clouds.9 mph51%30.21 "Hg10 mi
1:53 PM85 °FPassing clouds.10 mph55%30.23 "Hg10 mi
12:53 PM84 °FSunny.12 mph57%30.25 "Hg10 mi
11:53 AM81 °FSunny.7 mph60%30.27 "Hg10 mi
10:53 AM79 °FSunny.7 mph67%30.27 "Hg10 mi
9:53 AM74 °FPassing clouds.6 mph74%30.29 "Hg10 mi
8:53 AM70 °FSunny.3 mph84%30.30 "Hg10 mi
7:53 AM65 °FScattered clouds.No wind94%30.30 "Hg7 mi
6:53 AM65 °FClear.3 mph91%30.29 "Hg8 mi
5:53 AM64 °FFog.No wind87%30.28 "Hg6 mi
4:53 AM64 °FPassing clouds.3 mph94%30.27 "Hg8 mi
3:58 AM64 °FFog.5 mph94%30.29 "Hg1 mi
3:51 AM65 °FFog.3 mph91%30.27 "Hg2 mi
2:53 AM65 °FClear.No wind94%30.28 "Hg10 mi
Weather by CustomWeather, © 2016

See weather overviewHow to use our weather pages